When you browse on this site, cookies collect data to enhance your experience and personalize the content and advertising you see.
Visit our Privacy Policy to learn more. By continuing to use the site, you agree to this use of cookies and data.
  • In Österreich
  • Länderverzeichnis
  • Für 7 Tage
  • Wassertemperatur
  • Wetterkarte
  • News
  • Widgets
  • user-avatar
    Anmelden

    Stündliche Wetter Chaskowo

    Heute, 19 Februar, Mittwoch

    Zeit Temperatur Niederschläge Wind Luftdruck Luftfeuchtigkeit
    00:00 +8°C° 0 mm 0 m/S 743 mmHg 72%
    01:00 +9°C° 0 mm 1 m/S 744 mmHg 75%
    02:00 +8°C° 0 mm 1 m/S 744 mmHg 78%
    03:00 +8°C° 0 mm 1 m/S 744 mmHg 80%
    04:00 +8°C° 0 mm 1 m/S 743 mmHg 83%
    05:00 +7°C° 0 mm 1 m/S 743 mmHg 85%
    06:00 +8°C° 0 mm 1 m/S 743 mmHg 85%
    07:00 +8°C° 0 mm 1 m/S 743 mmHg 85%
    08:00 +8°C° 0 mm 1 m/S 743 mmHg 86%
    09:00 +9°C° 0 mm 1 m/S 743 mmHg 81%
    10:00 +10°C° 0 mm 1 m/S 743 mmHg 77%
    11:00 +11°C° 0 mm 1 m/S 743 mmHg 72%
    12:00 +11°C° 0 mm 1 m/S 743 mmHg 72%
    13:00 +11°C° 0 mm 1 m/S 743 mmHg 71%
    14:00 +12°C° 0 mm 1 m/S 742 mmHg 71%
    15:00 +11°C° 0 mm 1 m/S 742 mmHg 73%
    16:00 +11°C° 0 mm 1 m/S 742 mmHg 75%
    17:00 +11°C° 0 mm 1 m/S 741 mmHg 77%
    18:00 +10°C° 0 mm 1 m/S 741 mmHg 78%
    19:00 +10°C° 0 mm 1 m/S 741 mmHg 79%
    20:00 +10°C° 0 mm 1 m/S 741 mmHg 79%
    21:00 +9°C° 0 mm 1 m/S 741 mmHg 81%
    22:00 +9°C° 0 mm 1 m/S 741 mmHg 82%
    23:00 +9°C° 0 mm 1 m/S 741 mmHg 83%

    Morgen, 20 Februar, Donnerstag

    Zeit Temperatur Niederschläge Wind Luftdruck Luftfeuchtigkeit
    00:00 +8°C° 0.1 mm 1 m/S 740 mmHg 85%
    01:00 +8°C° 0.1 mm 1 m/S 740 mmHg 87%
    02:00 +8°C° 0.1 mm 1 m/S 740 mmHg 89%
    03:00 +8°C° 0.2 mm 1 m/S 740 mmHg 90%
    04:00 +7°C° 0.2 mm 1 m/S 739 mmHg 91%
    05:00 +6°C° 0.2 mm 2 m/S 739 mmHg 92%
    06:00 +7°C° 0.4 mm 1 m/S 739 mmHg 93%
    07:00 +7°C° 0.4 mm 1 m/S 739 mmHg 93%
    08:00 +7°C° 0.4 mm 1 m/S 739 mmHg 94%
    09:00 +7°C° 0.4 mm 1 m/S 740 mmHg 94%
    10:00 +7°C° 0.4 mm 1 m/S 740 mmHg 93%
    11:00 +6°C° 0.4 mm 2 m/S 740 mmHg 93%
    12:00 +7°C° 0.3 mm 2 m/S 740 mmHg 92%
    13:00 +7°C° 0.3 mm 2 m/S 740 mmHg 90%
    14:00 +7°C° 0.3 mm 2 m/S 740 mmHg 89%
    15:00 +7°C° 0.2 mm 2 m/S 740 mmHg 88%
    16:00 +8°C° 0.2 mm 1 m/S 740 mmHg 88%
    17:00 +8°C° 0.2 mm 1 m/S 740 mmHg 87%
    18:00 +7°C° 0.1 mm 2 m/S 740 mmHg 87%
    19:00 +6°C° 0.1 mm 2 m/S 740 mmHg 87%
    20:00 +6°C° 0.1 mm 2 m/S 741 mmHg 87%
    21:00 +5°C° 0 mm 3 m/S 741 mmHg 87%
    22:00 +5°C° 0 mm 3 m/S 741 mmHg 86%
    23:00 +4°C° 0 mm 3 m/S 741 mmHg 85%

    übermorgen, 21 Februar, Freitag

    Zeit Temperatur Niederschläge Wind Luftdruck Luftfeuchtigkeit
    00:00 +4°C° 0 mm 4 m/S 742 mmHg 85%
    01:00 +4°C° 0 mm 4 m/S 742 mmHg 85%
    02:00 +4°C° 0 mm 4 m/S 742 mmHg 84%
    03:00 +4°C° 0.1 mm 4 m/S 742 mmHg 83%
    04:00 +4°C° 0.1 mm 4 m/S 742 mmHg 82%
    05:00 +4°C° 0.1 mm 4 m/S 742 mmHg 81%
    06:00 +4°C° 0.1 mm 4 m/S 743 mmHg 81%
    07:00 +4°C° 0.1 mm 4 m/S 743 mmHg 81%
    08:00 +3°C° 0.1 mm 4 m/S 744 mmHg 82%
    15:00 +8°C° 0 mm 4 m/S 745 mmHg 58%
    16:00 +9°C° 0 mm 3 m/S 745 mmHg 60%
    17:00 +8°C° 0 mm 3 m/S 745 mmHg 61%
    18:00 +7°C° 0 mm 2 m/S 745 mmHg 66%
    19:00 +6°C° 0 mm 2 m/S 746 mmHg 70%
    20:00 +6°C° 0 mm 1 m/S 746 mmHg 74%
    21:00 +6°C° 0 mm 1 m/S 746 mmHg 75%
    22:00 +5°C° 0 mm 1 m/S 746 mmHg 76%
    23:00 +4°C° 0 mm 0 m/S 747 mmHg 77%

    22 Februar, Samstag

    Zeit Temperatur Niederschläge Wind Luftdruck Luftfeuchtigkeit
    00:00 +5°C° 0 mm 1 m/S 747 mmHg 77%
    01:00 +5°C° 0 mm 1 m/S 746 mmHg 76%
    02:00 +5°C° 0 mm 1 m/S 746 mmHg 76%
    03:00 +4°C° 0 mm 2 m/S 746 mmHg 75%
    04:00 +3°C° 0 mm 3 m/S 746 mmHg 73%
    05:00 +3°C° 0 mm 3 m/S 746 mmHg 72%
    06:00 +1°C° 0 mm 4 m/S 746 mmHg 69%
    07:00 +1°C° 0 mm 4 m/S 746 mmHg 66%
    08:00 +1°C° 0 mm 5 m/S 746 mmHg 62%
    09:00 +2°C° 0 mm 5 m/S 747 mmHg 58%
    10:00 +3°C° 0 mm 5 m/S 747 mmHg 54%
    11:00 +4°C° 0 mm 6 m/S 747 mmHg 50%
    12:00 +5°C° 0 mm 6 m/S 747 mmHg 52%
    13:00 +6°C° 0 mm 5 m/S 747 mmHg 55%
    14:00 +6°C° 0 mm 5 m/S 748 mmHg 57%
    15:00 +5°C° 0.1 mm 5 m/S 748 mmHg 62%
    16:00 +5°C° 0.1 mm 5 m/S 748 mmHg 68%
    17:00 +3°C° 0.1 mm 5 m/S 748 mmHg 73%
    18:00 +3°C° 0.1 mm 5 m/S 749 mmHg 76%
    19:00 +3°C° 0.1 mm 4 m/S 749 mmHg 78%
    20:00 +3°C° 0.1 mm 4 m/S 750 mmHg 81%
    21:00 +2°C° 0.1 mm 3 m/S 750 mmHg 82%
    22:00 +2°C° 0.1 mm 3 m/S 750 mmHg 84%
    23:00 +3°C° 0.1 mm 2 m/S 751 mmHg 85%

    23 Februar, Sonntag

    Zeit Temperatur Niederschläge Wind Luftdruck Luftfeuchtigkeit
    00:00 +2°C° 0 mm 2 m/S 751 mmHg 85%
    01:00 +2°C° 0 mm 2 m/S 751 mmHg 85%
    02:00 +2°C° 0 mm 2 m/S 750 mmHg 85%
    03:00 +1°C° 0 mm 2 m/S 750 mmHg 83%
    04:00 +1°C° 0 mm 2 m/S 750 mmHg 82%
    05:00 +1°C° 0 mm 2 m/S 750 mmHg 81%
    06:00 +1°C° 0 mm 2 m/S 750 mmHg 79%
    07:00 +2°C° 0 mm 1 m/S 749 mmHg 77%
    08:00 +3°C° 0 mm 1 m/S 749 mmHg 75%
    09:00 +4°C° 0 mm 1 m/S 749 mmHg 67%
    10:00 +5°C° 0 mm 2 m/S 749 mmHg 59%
    11:00 +7°C° 0 mm 2 m/S 749 mmHg 52%
    12:00 +8°C° 0 mm 2 m/S 748 mmHg 47%
    13:00 +9°C° 0 mm 2 m/S 748 mmHg 43%
    14:00 +11°C° 0 mm 3 m/S 747 mmHg 39%
    15:00 +10°C° 0 mm 2 m/S 747 mmHg 42%
    16:00 +10°C° 0 mm 2 m/S 746 mmHg 46%
    17:00 +11°C° 0 mm 1 m/S 746 mmHg 49%
    18:00 +10°C° 0 mm 1 m/S 746 mmHg 52%
    19:00 +9°C° 0 mm 1 m/S 746 mmHg 54%
    20:00 +7°C° 0 mm 2 m/S 746 mmHg 56%
    21:00 +7°C° 0 mm 2 m/S 745 mmHg 58%
    22:00 +6°C° 0 mm 2 m/S 745 mmHg 59%
    23:00 +7°C° 0 mm 1 m/S 745 mmHg 60%

    24 Februar, Montag

    Zeit Temperatur Niederschläge Wind Luftdruck Luftfeuchtigkeit
    00:00 +7°C° 0 mm 1 m/S 745 mmHg 60%
    01:00 +7°C° 0 mm 1 m/S 745 mmHg 61%
    02:00 +7°C° 0 mm 1 m/S 744 mmHg 61%
    03:00 +7°C° 0 mm 1 m/S 743 mmHg 61%
    04:00 +7°C° 0 mm 1 m/S 743 mmHg 61%
    05:00 +7°C° 0 mm 1 m/S 742 mmHg 61%
    06:00 +7°C° 0 mm 1 m/S 741 mmHg 62%
    07:00 +7°C° 0 mm 1 m/S 741 mmHg 63%
    08:00 +7°C° 0 mm 1 m/S 740 mmHg 64%
    09:00 +9°C° 0 mm 1 m/S 740 mmHg 59%
    10:00 +10°C° 0 mm 2 m/S 740 mmHg 54%
    11:00 +13°C° 0 mm 2 m/S 739 mmHg 49%
    12:00 +15°C° 0 mm 2 m/S 739 mmHg 46%
    13:00 +16°C° 0 mm 2 m/S 739 mmHg 43%
    14:00 +18°C° 0 mm 2 m/S 738 mmHg 40%
    15:00 +15°C° 0 mm 4 m/S 739 mmHg 45%
    16:00 +14°C° 0 mm 6 m/S 739 mmHg 49%
    17:00 +12°C° 0 mm 7 m/S 740 mmHg 54%
    18:00 +11°C° 0 mm 7 m/S 741 mmHg 54%
    19:00 +9°C° 0 mm 8 m/S 742 mmHg 54%
    20:00 +7°C° 0 mm 8 m/S 743 mmHg 54%
    21:00 +6°C° 0 mm 7 m/S 744 mmHg 53%
    22:00 +5°C° 0 mm 7 m/S 744 mmHg 51%
    23:00 +4°C° 0 mm 7 m/S 745 mmHg 50%
    Mehr zeigen